Location: Colonia Mina de C?rbuni
(46.1667°N, 22.7167°E)
Time: 07:31:14
(UTC+00:00)

Vanguard 1 Rocket - Pass Details

Date: 14 April 2024
Orbit: 650 x 4220 km, 34.3° (Epoch: 26 May)

Event Time Altitude Azimuth Distance (km) Brightness Sun altitude
Rises 18:53:52 0° 234° (SW) 3,564 10.7 -16.3°
Reaches altitude 10° 18:56:09 10° 225° (SW) 2,872 10.1 -16.6°
Maximum altitude 19:02:31 36° 160° (SSE) 2,206 8.9 -17.5°
Enters shadow 19:08:24 23° 113° (ESE) 3,497 9.8 -18.3°
